EHI
0 0 0 0 0 0 0 0 0 0 0 0 0 0 0 0 0 0 0 0 0 0 0 0 0 0 0 0 0 0 0 0 0 0 0 0 0 0 0 0 0 0 0
0 0 0 0 0 0 0 0 0 0 0 0 0 0 0 0 0 0 0 0 0 0 0 0 0 0 0 0 0 0 0 0 0 0 0 0 0 0 0 0 0 0 0
0 0 0 0 0 0 0 0 0 0 0 0 0 0 0 0 0 0 0 0 0 0 0 0 0 0 0 0 0 0 0 0 0 0 0 0 0 0 0 0 0 0 0
0 0 0 0 0 0 0 0 0 0 0 0 0 0 0 0 0 0 0 0 0 0 0 0 0 0 0 0 0 0 0 0 0 0 0 0 0 0 0 0 0 0 0
0 0 0 0 0 0 0 0 0 0 0 0 0 0 0 0 0 0 0 0 0 0 0 0 0 0 0 0 0 0 0 0 0 0 0 0 0 0 0 0 0 0 0
0 0 0 0 0 0 0 0 0 0 0 0 0 0 0 0 0 0 0 0 0 0 0 0 0 0 0 0 0 0 0 0 0 0 0 0 0 0 0 0 0 0 0
0 0 0 0 0 0 0 0 0 0 0 0 0 0 0 0 0 0 0 0 0 0 0 0 0 0 0 0 0 0 0 0 0 0 0 0 0 0 0 0 0 0 0
0 0 0 0 0 0 0 0 0 0 0 0 0 0 0 0 0 0 0 0 0 0 0 0 0 0 0 0 0 0 0 0 0 0 0 0 0 0 0 0 0 0 0
0 0 0 0 0 0 0 0 0 0 0 0 0 0 0 0 0 0 0 0 0 0 0 0 0 0 0 0 0 0 0 0 0 0 0 0 0 0 0 0 0 0 0
0 0 0 0 0 0 0 0 0 0 0 0 0 0 0 0 0 0 0 0 0 0 0 0 0 0 0 0 0 0 0 0 0 0 0 0 0 0 0 0 0 0 0
0 0 0 0 0 0 0 0 0 0 0 0 0 0 0 0 0 0 0 0 0 0 0 0 0 0 0 0 0 0 0 0 0 0 0 0 0 0 0 0 0 0 0
0 0 0 0 0 0 0 0 0 0 0 0 0 0 0 0 0 0 0 0 0 0 0 0 0 0 0 0 0 0 0 0 0 0 0 0 0 0 0 0 0 0 0
0 0 0 0 0 0 0 0 0 0 0 0 0 0 0 0 0 0 0 0 0 0 0 0 0 0 0 0 0 0 0 0 0 0 0 0 0 0 0 0 0 0 0
0 0 0 0 0 0 0 0 0 0 0 0 0 0 0 0 0 0 0 0 0 0 0 0 0 0 0 0 0 0 0 0 0 0 0 0 0 0 0 0 0 0 0
0 0 0 0 0 0 0 0 0 0 0 0 0 0 0 0 0 0 0 0 0 0 0 0 0 0 0 0 0 0 0 0 0 0 0 0 0 0 0 0 0 0 0
0 0 0 0 0 0 0 0 0 0 0 0 0 0 0 0 0 0 0 0 0 0 0 0 0 0 0 0 0 0 0 0 0 0 0 0 0 0 0 0 0 0 0
0 0 0 0 0 0 0 0 0 0 0 0 0 0 0 0 0 0 0 0 0 0 0 0 0 0 0 0 0 0 0 0 0 0 0 0 0 0 0 0 0 0 0
0 0 0 0 0 0 0 0 0 0 0 0 0 0 0 0 0 0 0 0 0 0 0 0 0 0 0 0 0 0 0 0 0 0 0 0 0 0 0 0 0 0 0
0 0 0 0 0 0 0 0 0 0 0 0 0 0 0 0 0 0 0 0 0 0 0 0 0 0 0 0 0 0 0 0 0 0 0 0 0 0 0 0 0 0 0
0 0 0 0 0 0 0 0 0 0 0 0 0 0 0 0 0 0 0 0 0 0 0 0 0 0 0 0 0 0 0 0 0 0 0 0 0 0 0 0 0 0 0
0 0 0 0 0 0 0 0 0 0 0 0 0 0 0 0 0 0 0 0 0 0 0 0 0 0 0 0 0 0 0 0 0 0 0 0 0 0 0 0 0 0 0
0 0 0 0 0 0 0 0 0 0 0 0 0 0 0 0 0 0 0 0 0 0 0 0 0 0 0 0 0 0 0 0 0 0 0 0 0 0 0 0 0 0 0
0 0 0 0 0 0 0 0 0 0 0 0 0 0 0 0 0 0 0 0 0 0 0 0 0 0 0 0 0 0 0 0 0 0 0 0 0 0 0 0 0 0 0
0 0 0 0 0 0 0 0 0 0 0 0 0 0 0 0 0 0 0 0 0 0 0 0 0 0 0 0 0 0 0 0 0 0 0 0 0 0 0 0 0 0 0
0 0 0 0 0 0 0 0 0 0 0 0 0 0 0 0 0 0 0 0 0 0 0 0 0 0 0 0 0 0 0 0 0 0 0 0 0 0 0 0 0 0 0
0 0 0 0 0 0 0 0 0 0 0 0 0 0 0 0 0 0 0 0 0 0 0 0 0 0 0 0 0 0 0 0 0 0 0 0 0 0 0 0 0 0 0
Wind_Speed
13 13 13 13 13 12 12 11 11 10 10 10 10 10 10 9 8 7 7 6 6 5 4 4 3 2 1 1 1 1 1 2 3 4 3 5 7 9 10 9 9 9 9
13 13 13 13 13 12 12 11 11 11 10 10 10 10 9 9 7 7 7 6 5 4 3 3 2 1 1 0 1 1 2 3 4 5 5 5 7 9 10 11 9 8 9
12 13 13 12 12 12 11 10 10 10 10 10 10 9 8 7 7 6 6 5 5 4 3 3 2 2 2 2 2 2 2 3 3 4 6 5 6 7 8 8 10 9 10
12 13 12 11 10 10 10 10 9 9 9 8 8 7 7 6 6 5 5 5 5 4 4 3 3 3 3 3 3 3 3 3 4 5 7 7 7 7 6 7 9 9 9
11 12 11 9 9 9 9 8 8 8 8 6 6 6 5 4 4 4 4 5 5 5 5 5 5 7 6 4 4 4 3 4 5 6 8 7 8 8 7 6 9 10 11
10 10 8 8 9 8 7 7 7 6 5 5 4 4 3 3 4 6 5 4 4 5 6 7 7 6 9 9 10 9 7 7 8 7 8 9 11 10 9 8 8 9 7
9 8 8 7 7 6 6 6 6 4 4 3 3 3 2 2 3 4 5 3 3 4 5 6 6 7 8 6 9 11 11 13 13 9 10 11 11 10 9 10 9 9 9
8 7 6 6 6 5 5 5 4 3 2 2 1 2 2 3 3 3 4 3 4 5 6 6 6 8 7 8 8 9 10 11 11 8 8 10 10 10 9 8 9 9 9
6 6 5 5 5 5 4 3 2 2 1 1 1 2 2 4 5 5 4 3 4 7 7 7 7 8 10 11 9 10 11 11 10 9 10 12 13 14 10 5 5 6 8
5 4 4 4 4 4 3 2 1 1 1 2 2 2 2 3 5 6 4 2 5 6 7 8 9 9 11 12 9 8 10 10 10 11 9 8 8 7 7 4 4 5 6
4 4 4 3 3 3 2 1 1 2 2 3 3 3 3 3 5 7 6 3 4 6 7 7 8 12 14 14 11 7 9 10 9 8 7 7 6 5 5 4 3 4 5
4 4 3 2 1 2 2 1 2 2 2 2 2 3 2 3 4 6 8 7 6 5 7 7 8 14 16 15 10 9 11 9 4 4 5 5 5 5 6 6 6 5 5
3 2 1 1 1 1 1 1 1 1 1 1 2 2 3 3 4 7 8 9 10 6 6 11 14 15 13 9 9 11 8 4 4 4 5 5 4 5 6 6 6 6 6
2 1 1 1 1 1 1 1 1 1 0 0 1 2 3 3 4 5 6 7 9 8 7 10 12 10 7 7 7 6 4 4 3 4 4 5 5 5 4 4 4 5 5
1 0 1 1 1 1 1 1 0 1 2 1 1 1 2 4 5 8 7 7 7 7 8 5 5 6 7 7 7 6 5 5 5 4 4 5 5 5 5 4 3 3 4
0 1 1 1 0 0 1 2 4 2 1 1 1 2 3 5 9 11 11 11 11 10 5 4 5 5 6 6 7 7 6 6 6 5 5 5 5 5 5 4 3 3 4
2 2 1 1 0 0 1 1 1 3 3 3 3 4 5 8 9 10 11 12 9 7 4 5 5 6 6 6 6 6 6 7 6 6 6 6 5 5 4 5 4 4 4
2 2 2 1 1 1 1 1 1 1 2 3 3 5 8 8 8 9 10 8 5 5 4 5 5 6 6 6 6 6 7 7 6 6 6 6 5 5 5 5 4 4 4
2 1 1 1 1 2 2 2 1 1 1 2 3 4 7 7 7 8 7 4 4 5 5 5 5 6 6 6 6 6 6 6 7 6 6 6 6 5 5 4 4 4 4
1 2 2 2 2 2 2 2 2 1 1 2 3 4 5 5 4 5 5 4 5 5 5 6 6 6 6 6 6 6 6 6 7 6 6 6 6 5 5 5 4 4 3
0 1 4 3 2 2 2 2 1 1 1 2 2 3 5 3 3 4 4 5 5 5 6 6 6 6 6 6 6 7 8 7 6 6 6 6 6 5 4 4 4 3 3
1 2 2 2 2 2 2 2 1 1 1 2 2 3 5 3 3 4 4 5 5 5 5 5 5 5 6 6 6 7 7 7 7 7 7 7 6 5 5 4 4 4 4
2 3 3 2 2 3 3 2 1 1 1 2 2 3 3 3 4 4 4 5 5 5 5 5 6 6 6 6 5 5 6 7 7 7 7 7 6 5 4 5 5 5 5
2 3 3 3 2 2 2 2 2 2 1 1 2 2 3 3 3 4 4 4 5 5 6 6 6 9 11 9 6 6 6 8 8 6 7 5 5 4 4 5 5 6 5
3 3 3 3 3 3 3 2 2 2 1 1 2 2 3 3 3 4 4 4 6 6 8 7 6 8 11 12 11 10 11 11 8 6 4 3 4 5 5 6 5 6 6
3 3 3 3 3 3 3 2 2 1 1 1 1 2 2 3 3 4 4 5 5 6 7 7 10 11 12 10 12 13 12 11 10 9 5 4 6 6 5 5 7 6 7
Wind_Direction
69 74 76 77 79 80 80 80 83 81 78 78 77 74 72 69 68 73 71 66 70 62 57 72 73 88 95 101 129 167 186 194 240 270 269 284 292 296 304 303 297 292 289
72 74 75 75 77 78 78 79 82 82 78 78 79 77 74 71 67 69 67 59 59 53 39 43 35 28 13 295 229 230 227 216 232 274 289 292 288 294 295 298 298 298 293
77 78 76 74 77 79 79 77 78 80 78 77 78 78 75 70 65 62 62 54 47 37 22 15 353 342 316 287 266 257 253 246 228 259 289 292 291 293 297 295 297 294 295
78 80 79 76 77 78 79 80 81 84 84 82 82 81 77 71 64 58 57 48 34 21 8 354 331 309 287 282 279 273 264 268 268 275 289 295 292 293 289 299 307 307 305
78 78 77 76 76 78 78 79 82 83 87 88 88 82 74 70 62 59 49 43 28 14 4 353 336 334 337 325 310 288 271 277 289 293 295 296 298 302 302 302 303 307 303
83 82 81 81 79 79 80 82 82 81 81 81 78 77 65 60 58 61 63 40 23 10 355 345 334 338 339 334 327 319 302 292 292 290 291 292 295 297 298 301 303 306 307
88 89 87 87 86 83 87 83 82 78 75 73 64 58 41 4 23 39 45 40 9 352 341 335 331 326 330 321 321 319 309 298 288 280 279 282 289 293 298 300 299 302 298
91 93 94 94 92 88 85 83 78 73 68 50 28 6 344 332 343 356 9 11 345 331 325 317 311 311 315 323 320 312 305 299 293 283 269 276 281 286 284 286 292 294 290
97 101 103 104 101 95 89 81 67 64 40 2 342 336 324 323 340 345 353 339 325 321 317 313 308 304 306 316 318 310 307 305 303 291 281 281 282 283 283 283 291 301 307
103 106 108 109 108 103 95 77 55 62 24 8 22 11 353 342 357 5 2 333 321 321 319 314 312 308 307 312 311 303 301 305 313 317 316 314 308 303 298 271 275 292 303
106 102 100 103 109 110 93 72 65 55 43 33 30 19 16 8 358 2 360 339 317 315 314 315 313 315 314 312 309 290 281 290 301 306 313 317 321 322 320 310 275 263 288
103 98 95 92 92 113 111 88 69 72 60 31 17 6 360 351 346 341 341 333 323 306 303 307 307 310 312 313 313 305 305 306 303 314 322 324 324 324 320 315 305 288 263
99 90 77 60 45 82 126 129 85 75 73 17 7 352 337 334 329 334 334 329 328 318 301 305 309 311 315 318 320 323 327 332 332 329 325 312 300 299 305 311 313 317 314
115 96 9 0 355 22 70 140 149 156 130 1 348 333 327 325 328 336 335 330 331 330 324 318 317 316 320 319 324 334 340 331 320 310 304 298 300 308 311 315 315 330 336
112 339 331 329 318 18 49 38 176 212 207 189 236 282 322 327 316 319 322 323 323 317 319 320 335 342 348 348 343 337 336 341 340 325 311 311 314 320 320 324 319 328 339
205 296 304 307 303 126 95 50 42 55 61 135 219 254 281 286 308 323 329 328 327 328 329 334 338 342 342 338 336 333 332 340 335 328 323 319 319 322 323 329 334 336 341
216 252 269 272 240 163 127 109 45 13 17 14 351 339 331 328 335 340 339 335 338 346 355 345 342 339 336 332 331 328 323 325 324 326 325 325 325 326 330 336 344 347 351
232 246 232 238 219 152 136 122 107 66 10 349 346 349 351 347 348 351 348 349 356 3 357 346 341 338 336 335 334 332 328 331 336 337 335 335 336 333 337 344 351 355 356
231 229 183 144 124 125 121 112 98 77 37 355 345 346 350 347 353 359 2 10 354 349 347 344 340 338 336 335 333 333 332 331 336 338 340 342 343 342 346 351 357 3 11
259 200 151 131 120 115 113 109 100 74 32 6 359 349 344 357 4 355 360 355 353 349 345 342 340 341 340 338 337 337 337 340 344 345 341 341 342 345 350 356 4 15 21
185 133 132 122 117 118 117 117 107 78 30 5 353 350 358 357 352 347 348 353 353 349 345 340 340 343 344 341 340 340 340 338 341 340 337 338 340 344 349 2 13 22 27
143 132 125 123 118 114 112 110 107 87 34 17 1 355 5 10 358 353 351 350 350 349 345 339 338 341 341 338 335 333 332 334 338 338 334 333 336 344 355 12 24 29 29
134 130 119 111 112 114 103 93 92 85 53 29 11 6 5 3 358 354 352 351 350 352 351 350 345 344 343 335 329 325 323 322 319 315 317 323 335 348 2 16 26 34 34
136 136 130 122 117 115 109 98 91 86 71 45 22 15 5 358 355 355 355 353 353 354 355 354 351 347 347 344 337 331 326 318 311 304 309 318 339 358 19 29 32 37 41
132 130 131 133 132 126 120 114 102 87 74 52 30 15 4 2 2 359 357 357 358 358 359 358 353 350 349 348 348 342 332 329 331 332 332 355 20 29 34 37 39 42 42
132 131 131 132 133 135 136 133 124 113 87 55 31 18 10 9 6 3 359 359 357 356 357 356 356 357 355 353 349 343 340 343 348 353 1 25 38 36 36 42 48 48 50